User: anonymous   Login
Location: Unspecified
(35.6895°N, 139.6917°E)
Time: 01:26:34
(UTC+00:00)
Language:

ASTRO H - Orbit

View from above orbital plane
View from above orbital plane
View from above satellite
View from above satellite

Ground track
Ground track

The orbit data is extracted from the following two-line orbital elements,

1 41337U 16012A   21295.69445057  .00000437  00000-0  28328-4 0  9998
2 41337  31.0041 128.2258 0012445 256.4417 103.4832 14.98926162311411
Epoch (UTC): 22 October 2021 16:40:00
Eccentricity: 0.0012445
inclination: 31.0041°
perigee height: 561 km
apogee height: 579 km
right ascension of ascending node: 128.2258°
argument of perigee: 256.4417°
revolutions per day: 14.98926162
mean anomaly at epoch: 103.4832°
orbit number at epoch: 31141

The dashed part of the orbit path shows where the satellite is in the earth's shadow,  

DLR